| time (UTC) | temp F | wind direction | speed MPH | gust MPH | rain 1hr in | rain 24hr in | rain mn in | humidity % | barometer mb |
| 20260906031139 | 54 | 323 | 0.0 | 0.0 | 0.00 | 0.03 | 0.00 | 88 | 1028.2 |
| 20260906030619 | 54 | 323 | 0.0 | 0.0 | 0.00 | 0.03 | 0.00 | 88 | 1028.2 |
| 20260906030118 | 54 | 323 | 0.0 | 0.0 | 0.00 | 0.03 | 0.00 | 88 | 1028.2 |
| 20260906025606 | 54 | 323 | 0.0 | 0.0 | 0.00 | 0.03 | 0.00 | 87 | 1027.4 |
| 20260906025107 | 54 | 323 | 0.0 | 0.0 | 0.00 | 0.03 | 0.00 | 87 | 1028.2 |
| 20260906024607 | 54 | 323 | 0.0 | 0.0 | 0.00 | 0.03 | 0.00 | 87 | 1027.4 |
| 20260906024106 | 54 | 323 | 0.0 | 0.0 | 0.00 | 0.03 | 0.00 | 87 | 1027.3 |
| 20260906023605 | 54 | 323 | 0.0 | 0.0 | 0.00 | 0.03 | 0.00 | 87 | 1028.2 |
| 20260906023055 | 54 | 323 | 0.0 | 0.0 | 0.00 | 0.03 | 0.00 | 87 | 1028.2 |
| 20260906022537 | 54 | 323 | 0.0 | 0.0 | 0.00 | 0.03 | 0.00 | 86 | 1028.2 |
| 20260906022033 | 55 | 326 | 0.0 | 0.0 | 0.00 | 0.03 | 0.00 | 86 | 1028.2 |
| 20260906021533 | 55 | 326 | 0.0 | 0.0 | 0.00 | 0.03 | 0.00 | 86 | 1028.1 |
| 20260906021308 | 55 | 326 | 0.0 | 0.0 | 0.00 | 0.03 | 0.00 | 85 | 1028.1 |
| 20260906020536 | 55 | 326 | 0.0 | 0.0 | 0.00 | 0.03 | 0.00 | 85 | 1028.1 |
| 20260906020011 | 55 | 326 | 0.0 | 0.0 | 0.00 | 0.03 | 0.00 | 85 | 1028.0 |
| 20260906015517 | 55 | 326 | 0.0 | 0.0 | 0.00 | 0.03 | 0.00 | 85 | 1028.0 |
| 20260906015511 | 55 | 326 | 0.0 | 0.0 | 0.00 | 0.03 | 0.00 | 85 | 1028.0 |
| 20260906014508 | 56 | 326 | 0.0 | 0.0 | 0.00 | 0.03 | 0.00 | 85 | 1028.0 |
| 20260906014008 | 56 | 326 | 0.0 | 0.0 | 0.00 | 0.03 | 0.00 | 85 | 1028.0 |
| 20260906013504 | 56 | 326 | 0.0 | 0.0 | 0.00 | 0.03 | 0.00 | 85 | 1027.9 |
| 20260906013001 | 56 | 326 | 0.0 | 0.0 | 0.00 | 0.03 | 0.00 | 85 | 1027.1 |
| 20260906012437 | 56 | 326 | 0.0 | 0.0 | 0.00 | 0.03 | 0.00 | 85 | 1027.9 |
| 20260906011935 | 56 | 326 | 0.0 | 0.0 | 0.00 | 0.03 | 0.00 | 84 | 1027.8 |
| 20260906011427 | 56 | 326 | 0.0 | 0.0 | 0.00 | 0.03 | 0.00 | 84 | 1027.8 |
| 20260906010922 | 57 | 326 | 0.0 | 0.0 | 0.00 | 0.03 | 0.00 | 84 | 1027.8 |
| 20260906010413 | 57 | 326 | 0.0 | 0.0 | 0.00 | 0.03 | 0.00 | 84 | 1027.7 |
| 20260906005908 | 57 | 326 | 0.0 | 0.0 | 0.00 | 0.03 | 0.00 | 84 | 1027.7 |
| 20260906005407 | 57 | 326 | 0.0 | 2.0 | 0.00 | 0.03 | 0.00 | 84 | 1027.0 |
| 20260906004904 | 57 | 326 | 0.0 | 2.0 | 0.00 | 0.03 | 0.00 | 84 | 1027.7 |
| 20260906004404 | 58 | 307 | 0.0 | 0.0 | 0.00 | 0.03 | 0.00 | 84 | 1027.7 |
| 20260906003906 | 58 | 307 | 0.0 | 0.0 | 0.00 | 0.03 | 0.00 | 84 | 1027.7 |
| 20260906003405 | 58 | 307 | 0.0 | 0.0 | 0.00 | 0.03 | 0.00 | 84 | 1027.7 |
| 20260906003145 | 58 | 307 | 0.0 | 2.0 | 0.00 | 0.03 | 0.00 | 84 | 1027.7 |
| 20260906002350 | 58 | 307 | 0.0 | 2.0 | 0.00 | 0.03 | 0.00 | 84 | 1027.6 |
| 20260906001844 | 58 | 307 | 1.0 | 3.0 | 0.00 | 0.03 | 0.00 | 84 | 1027.6 |
| 20260906001341 | 59 | 308 | 1.0 | 3.0 | 0.00 | 0.03 | 0.00 | 84 | 1027.5 |
| 20260906000836 | 59 | 294 | 1.0 | 3.0 | 0.00 | 0.03 | 0.00 | 83 | 1027.5 |
| 20260906000337 | 59 | 296 | 1.0 | 3.0 | 0.00 | 0.03 | 0.00 | 83 | 1027.4 |
| 20260905235816 | 59 | 312 | 1.0 | 3.0 | 0.00 | 0.03 | 0.00 | 83 | 1027.4 |
| 20260905235313 | 59 | 299 | 1.0 | 3.0 | 0.00 | 0.03 | 0.00 | 83 | 1027.3 |
| 20260905234810 | 59 | 306 | 0.0 | 3.0 | 0.00 | 0.03 | 0.00 | 83 | 1026.4 |
| 20260905234307 | 60 | 306 | 1.0 | 3.0 | 0.00 | 0.03 | 0.00 | 83 | 1027.2 |
| 20260905234237 | 60 | 307 | 1.0 | 3.0 | 0.00 | 0.03 | 0.00 | 83 | 1027.2 |
| 20260905233225 | 60 | 311 | 1.0 | 3.0 | 0.00 | 0.03 | 0.00 | 83 | 1027.2 |
| 20260905232722 | 60 | 340 | 1.0 | 3.0 | 0.00 | 0.03 | 0.00 | 82 | 1027.1 |
| 20260905232442 | 60 | 336 | 0.0 | 2.0 | 0.00 | 0.03 | 0.00 | 82 | 1027.1 |
| 20260905231713 | 60 | 289 | 0.0 | 0.0 | 0.00 | 0.03 | 0.00 | 82 | 1027.0 |
| 20260905231212 | 61 | 288 | 0.0 | 1.0 | 0.00 | 0.03 | 0.00 | 81 | 1027.0 |
| 20260905230707 | 61 | 289 | 0.0 | 3.0 | 0.00 | 0.03 | 0.00 | 82 | 1027.0 |
| 20260905230209 | 61 | 288 | 1.0 | 3.0 | 0.00 | 0.03 | 0.00 | 82 | 1027.1 |
| 20260905225658 | 61 | 292 | 1.0 | 3.0 | 0.00 | 0.03 | 0.00 | 82 | 1027.1 |
| 20260905225158 | 61 | 289 | 1.0 | 3.0 | 0.00 | 0.03 | 0.00 | 82 | 1026.3 |
| 20260905224637 | 61 | 295 | 1.0 | 3.0 | 0.00 | 0.03 | 0.00 | 81 | 1026.9 |
| 20260905224135 | 61 | 299 | 2.0 | 5.0 | 0.00 | 0.03 | 0.00 | 81 | 1026.8 |
| 20260905223636 | 61 | 318 | 1.0 | 5.0 | 0.00 | 0.03 | 0.00 | 81 | 1026.8 |
| 20260905223117 | 62 | 291 | 1.0 | 4.0 | 0.00 | 0.03 | 0.00 | 82 | 1026.5 |
| 20260905222613 | 62 | 297 | 0.0 | 0.0 | 0.00 | 0.03 | 0.00 | 82 | 1026.5 |
| 20260905222112 | 62 | 289 | 0.0 | 0.0 | 0.00 | 0.03 | 0.00 | 82 | 1026.5 |
| 20260905221842 | 62 | 288 | 0.0 | 0.0 | 0.00 | 0.03 | 0.00 | 82 | 1026.5 |
| 20260905221109 | 62 | 301 | 0.0 | 0.0 | 0.00 | 0.03 | 0.00 | 82 | 1026.0 |
| 20260905220538 | 63 | 301 | 0.0 | 0.0 | 0.00 | 0.03 | 0.00 | 82 | 1026.4 |
| 20260905220035 | 63 | 301 | 0.0 | 0.0 | 0.00 | 0.03 | 0.00 | 81 | 1026.3 |
| 20260905215535 | 63 | 301 | 0.0 | 0.0 | 0.00 | 0.03 | 0.03 | 81 | 1026.3 |
| 20260905215027 | 63 | 301 | 0.0 | 0.0 | 0.00 | 0.03 | 0.03 | 81 | 1026.2 |
| 20260905214520 | 63 | 311 | 0.0 | 0.0 | 0.00 | 0.03 | 0.03 | 80 | 1026.2 |
| 20260905214015 | 63 | 316 | 0.0 | 0.0 | 0.00 | 0.03 | 0.03 | 79 | 1026.2 |
| 20260905213512 | 63 | 312 | 0.0 | 0.0 | 0.00 | 0.03 | 0.03 | 79 | 1026.1 |
| 20260905213009 | 64 | 310 | 0.0 | 0.0 | 0.00 | 0.03 | 0.03 | 79 | 1025.6 |
| 20260905212509 | 64 | 310 | 0.0 | 0.0 | 0.00 | 0.03 | 0.03 | 80 | 1026.0 |
| 20260905212237 | 64 | 310 | 0.0 | 0.0 | 0.00 | 0.03 | 0.03 | 80 | 1025.5 |
| 20260905211438 | 64 | 310 | 0.0 | 0.0 | 0.00 | 0.03 | 0.03 | 80 | 1025.9 |
| 20260905210939 | 64 | 310 | 0.0 | 0.0 | 0.00 | 0.03 | 0.03 | 80 | 1025.9 |
| 20260905210438 | 64 | 310 | 0.0 | 0.0 | 0.00 | 0.03 | 0.03 | 80 | 1025.5 |
| 20260905205959 | 65 | 310 | 0.0 | 0.0 | 0.00 | 0.03 | 0.03 | 80 | 1025.9 |
| 20260905205951 | 64 | 310 | 0.0 | 0.0 | 0.00 | 0.03 | 0.03 | 80 | 1025.8 |
| 20260905204936 | 65 | 310 | 0.0 | 0.0 | 0.00 | 0.03 | 0.03 | 80 | 1025.8 |
| 20260905204409 | 65 | 310 | 0.0 | 0.0 | 0.00 | 0.03 | 0.03 | 80 | 1025.7 |
| 20260905204148 | 65 | 293 | 0.0 | 0.0 | 0.00 | 0.03 | 0.03 | 80 | 1025.8 |
| 20260905203915 | 65 | 310 | 0.0 | 0.0 | 0.00 | 0.03 | 0.03 | 80 | 1025.8 |
| 20260905202907 | 65 | 290 | 0.0 | 0.0 | 0.00 | 0.03 | 0.03 | 80 | 1025.8 |
| 20260905202406 | 65 | 290 | 0.0 | 0.0 | 0.00 | 0.03 | 0.03 | 79 | 1025.8 |
| 20260905201906 | 65 | 290 | 0.0 | 0.0 | 0.00 | 0.03 | 0.03 | 79 | 1025.7 |
| 20260905201407 | 65 | 290 | 0.0 | 0.0 | 0.00 | 0.03 | 0.03 | 78 | 1025.3 |
| 20260905200907 | 66 | 290 | 0.0 | 0.0 | 0.00 | 0.03 | 0.03 | 78 | 1025.6 |
| 20260905200405 | 66 | 290 | 0.0 | 0.0 | 0.00 | 0.03 | 0.03 | 78 | 1025.5 |
| 20260905195907 | 66 | 290 | 0.0 | 0.0 | 0.00 | 0.03 | 0.03 | 78 | 1025.5 |
| 20260905195408 | 66 | 290 | 0.0 | 0.0 | 0.00 | 0.03 | 0.03 | 77 | 1025.2 |
| 20260905194907 | 66 | 290 | 0.0 | 0.0 | 0.00 | 0.03 | 0.03 | 77 | 1025.4 |
| 20260905194409 | 66 | 290 | 0.0 | 0.0 | 0.00 | 0.03 | 0.03 | 77 | 1025.4 |
| 20260905193907 | 66 | 290 | 0.0 | 0.0 | 0.00 | 0.03 | 0.03 | 77 | 1025.3 |
| 20260905193407 | 66 | 290 | 0.0 | 0.0 | 0.00 | 0.03 | 0.03 | 77 | 1024.9 |
| 20260905193130 | 67 | 248 | 1.0 | 5.0 | 0.00 | 0.03 | 0.03 | 77 | 1025.2 |
| 20260905192358 | 67 | 333 | 1.0 | 5.0 | 0.00 | 0.03 | 0.03 | 77 | 1025.0 |
| 20260905191851 | 67 | 328 | 0.0 | 0.0 | 0.00 | 0.03 | 0.03 | 76 | 1024.9 |
| 20260905191841 | 67 | 279 | 0.0 | 0.0 | 0.00 | 0.03 | 0.03 | 76 | 1025.1 |
| 20260905191107 | 67 | 280 | 0.0 | 0.0 | 0.00 | 0.03 | 0.03 | 75 | 1025.2 |
| 20260905190342 | 68 | 283 | 0.0 | 0.0 | 0.00 | 0.03 | 0.03 | 74 | 1025.1 |
| 20260905190334 | 67 | 279 | 0.0 | 0.0 | 0.00 | 0.03 | 0.03 | 74 | 1025.1 |
| 20260905185319 | 68 | 283 | 0.0 | 0.0 | 0.00 | 0.03 | 0.03 | 74 | 1025.0 |
| 20260905184809 | 68 | 283 | 0.0 | 0.0 | 0.00 | 0.03 | 0.03 | 74 | 1025.0 |
| 20260905184315 | 68 | 316 | 0.0 | 0.0 | 0.00 | 0.03 | 0.03 | 74 | 1024.9 |
| 20260905183809 | 68 | 342 | 0.0 | 0.0 | 0.00 | 0.03 | 0.03 | 73 | 1024.8 |
| 20260905183537 | 69 | 317 | 0.0 | 0.0 | 0.00 | 0.03 | 0.03 | 73 | 1024.7 |
| 20260905182819 | 69 | 318 | 0.0 | 0.0 | 0.00 | 0.03 | 0.03 | 72 | 1024.7 |
| 20260905182307 | 69 | 326 | 0.0 | 0.0 | 0.00 | 0.03 | 0.03 | 72 | 1024.6 |
| 20260905181801 | 69 | 330 | 0.0 | 0.0 | 0.00 | 0.03 | 0.03 | 71 | 1024.5 |
| 20260905181537 | 70 | 291 | 0.0 | 2.0 | 0.00 | 0.03 | 0.03 | 71 | 1024.5 |
| 20260905180736 | 70 | 325 | 1.0 | 3.0 | 0.00 | 0.03 | 0.03 | 71 | 1024.3 |
| 20260905180235 | 70 | 325 | 1.0 | 3.0 | 0.00 | 0.03 | 0.03 | 71 | 1024.3 |
| 20260905175735 | 70 | 193 | 0.0 | 3.0 | 0.00 | 0.03 | 0.03 | 70 | 1024.3 |
| 20260905175236 | 70 | 193 | 1.0 | 3.0 | 0.00 | 0.03 | 0.03 | 70 | 1024.2 |
| 20260905174736 | 70 | 193 | 1.0 | 3.0 | 0.00 | 0.03 | 0.03 | 70 | 1024.1 |
| 20260905174232 | 71 | 193 | 2.0 | 5.0 | 0.00 | 0.03 | 0.03 | 70 | 1024.0 |
| 20260905173731 | 71 | 193 | 2.0 | 5.0 | 0.00 | 0.03 | 0.03 | 69 | 1023.9 |
| 20260905173230 | 71 | 204 | 2.0 | 5.0 | 0.00 | 0.03 | 0.03 | 69 | 1023.8 |
| 20260905172713 | 71 | 199 | 2.0 | 4.0 | 0.00 | 0.03 | 0.03 | 69 | 1023.8 |
| 20260905172209 | 72 | 210 | 2.0 | 6.0 | 0.00 | 0.03 | 0.03 | 69 | 1023.7 |
| 20260905171913 | 72 | 210 | 1.0 | 6.0 | 0.00 | 0.03 | 0.03 | 68 | 1023.8 |
| 20260905171140 | 72 | 195 | 0.0 | 4.0 | 0.00 | 0.03 | 0.03 | 68 | 1023.7 |
| 20260905170641 | 72 | 196 | 1.0 | 4.0 | 0.00 | 0.03 | 0.03 | 68 | 1023.7 |
| 20260905170137 | 73 | 222 | 1.0 | 5.0 | 0.00 | 0.03 | 0.03 | 67 | 1023.7 |
| 20260905165640 | 73 | 220 | 2.0 | 5.0 | 0.00 | 0.03 | 0.03 | 67 | 1023.7 |
| 20260905165115 | 73 | 190 | 2.0 | 5.0 | 0.00 | 0.03 | 0.03 | 66 | 1023.6 |
| 20260905164614 | 73 | 179 | 2.0 | 5.0 | 0.00 | 0.03 | 0.03 | 66 | 1023.6 |
| 20260905164109 | 73 | 250 | 2.0 | 5.0 | 0.00 | 0.03 | 0.03 | 66 | 1023.6 |
| 20260905163607 | 73 | 219 | 2.0 | 6.0 | 0.00 | 0.03 | 0.03 | 66 | 1023.6 |
| 20260905163103 | 73 | 196 | 3.0 | 6.0 | 0.00 | 0.03 | 0.03 | 65 | 1023.5 |
| 20260905162556 | 74 | 213 | 3.0 | 6.0 | 0.00 | 0.03 | 0.03 | 65 | 1023.5 |
| 20260905162054 | 74 | 204 | 3.0 | 7.0 | 0.00 | 0.03 | 0.03 | 64 | 1023.5 |
| 20260905161809 | 74 | 193 | 2.0 | 7.0 | 0.00 | 0.03 | 0.03 | 65 | 1023.3 |
| 20260905161035 | 74 | 212 | 3.0 | 7.0 | 0.00 | 0.03 | 0.03 | 65 | 1023.3 |
| 20260905160812 | 74 | 201 | 3.0 | 7.0 | 0.00 | 0.03 | 0.03 | 64 | 1023.2 |
| 20260905160019 | 74 | 205 | 3.0 | 8.0 | 0.00 | 0.03 | 0.03 | 64 | 1023.2 |
| 20260905155514 | 74 | 200 | 2.0 | 8.0 | 0.00 | 0.03 | 0.03 | 62 | 1023.2 |
| 20260905155010 | 75 | 334 | 1.0 | 5.0 | 0.00 | 0.03 | 0.03 | 61 | 1023.2 |
| 20260905154748 | 75 | 328 | 1.0 | 6.0 | 0.00 | 0.03 | 0.03 | 61 | 1023.2 |
| 20260905154247 | 75 | 293 | 2.0 | 6.0 | 0.00 | 0.03 | 0.03 | 60 | 1023.3 |
| 20260905153508 | 75 | 272 | 3.0 | 6.0 | 0.00 | 0.03 | 0.03 | 60 | 1023.3 |
| 20260905153006 | 75 | 248 | 3.0 | 7.0 | 0.00 | 0.03 | 0.03 | 60 | 1023.3 |
| 20260905152506 | 75 | 232 | 3.0 | 7.0 | 0.00 | 0.03 | 0.03 | 60 | 1023.2 |
| 20260905152008 | 75 | 253 | 3.0 | 7.0 | 0.00 | 0.03 | 0.03 | 60 | 1023.5 |
| 20260905151505 | 75 | 257 | 3.0 | 6.0 | 0.00 | 0.03 | 0.03 | 59 | 1023.5 |
| 20260905151003 | 75 | 250 | 3.0 | 6.0 | 0.00 | 0.03 | 0.03 | 59 | 1023.3 |
| 20260905150503 | 76 | 232 | 2.0 | 5.0 | 0.00 | 0.03 | 0.03 | 59 | 1023.2 |
| 20260905150004 | 75 | 200 | 2.0 | 6.0 | 0.00 | 0.03 | 0.03 | 59 | 1023.3 |
| 20260905145453 | 75 | 268 | 2.0 | 6.0 | 0.00 | 0.03 | 0.03 | 58 | 1023.3 |
| 20260905144946 | 75 | 241 | 2.0 | 8.0 | 0.00 | 0.03 | 0.03 | 58 | 1023.3 |
| 20260905144447 | 75 | 247 | 2.0 | 8.0 | 0.00 | 0.03 | 0.03 | 57 | 1023.6 |
| 20260905143948 | 76 | 301 | 2.0 | 7.0 | 0.00 | 0.03 | 0.03 | 57 | 1023.5 |
| 20260905143444 | 76 | 262 | 3.0 | 10.0 | 0.00 | 0.03 | 0.03 | 57 | 1023.5 |
| 20260905142944 | 76 | 303 | 3.0 | 10.0 | 0.00 | 0.03 | 0.03 | 56 | 1023.7 |
| 20260905142438 | 76 | 249 | 3.0 | 8.0 | 0.00 | 0.03 | 0.03 | 54 | 1023.8 |
| 20260905141937 | 77 | 253 | 3.0 | 8.0 | 0.00 | 0.03 | 0.03 | 55 | 1023.6 |
| 20260905141436 | 77 | 210 | 3.0 | 8.0 | 0.00 | 0.03 | 0.03 | 55 | 1023.5 |
| 20260905140938 | 77 | 257 | 3.0 | 8.0 | 0.00 | 0.03 | 0.03 | 55 | 1023.5 |
| 20260905140714 | 76 | 204 | 4.0 | 8.0 | 0.00 | 0.03 | 0.03 | 56 | 1023.5 |
| 20260905135937 | 76 | 325 | 4.0 | 10.0 | 0.01 | 0.03 | 0.03 | 56 | 1023.7 |
| 20260905135434 | 77 | 314 | 4.0 | 10.0 | 0.01 | 0.03 | 0.03 | 55 | 1023.7 |
| 20260905134935 | 77 | 272 | 3.0 | 5.0 | 0.01 | 0.03 | 0.03 | 55 | 1023.9 |
| 20260905134718 | 76 | 341 | 2.0 | 6.0 | 0.01 | 0.03 | 0.03 | 57 | 1023.7 |
| 20260905133937 | 76 | 264 | 3.0 | 10.0 | 0.01 | 0.03 | 0.03 | 58 | 1023.9 |
| 20260905133715 | 76 | 273 | 3.0 | 10.0 | 0.01 | 0.03 | 0.03 | 58 | 1024.0 |
| 20260905132936 | 74 | 256 | 4.0 | 10.0 | 0.01 | 0.03 | 0.03 | 61 | 1023.8 |
| 20260905132409 | 74 | 320 | 5.0 | 11.0 | 0.01 | 0.03 | 0.03 | 61 | 1023.9 |
| 20260905131909 | 74 | 310 | 5.0 | 11.0 | 0.01 | 0.03 | 0.03 | 61 | 1023.9 |
| 20260905131408 | 74 | 292 | 4.0 | 9.0 | 0.01 | 0.03 | 0.03 | 60 | 1023.8 |
| 20260905130908 | 74 | 316 | 4.0 | 13.0 | 0.01 | 0.03 | 0.03 | 61 | 1023.8 |
| 20260905130406 | 75 | 330 | 4.0 | 13.0 | 0.01 | 0.03 | 0.03 | 60 | 1023.9 |
| 20260905125907 | 75 | 276 | 4.0 | 8.0 | 0.00 | 0.02 | 0.02 | 59 | 1023.8 |
| 20260905125405 | 75 | 303 | 4.0 | 13.0 | 0.00 | 0.02 | 0.02 | 60 | 1023.9 |
| 20260905125150 | 76 | 295 | 3.0 | 6.0 | 0.00 | 0.02 | 0.02 | 59 | 1023.9 |
| 20260905124911 | 76 | 317 | 3.0 | 13.0 | 0.00 | 0.02 | 0.02 | 59 | 1023.9 |
| 20260905123900 | 76 | 311 | 3.0 | 6.0 | 0.00 | 0.02 | 0.02 | 60 | 1024.0 |
| 20260905123400 | 75 | 270 | 3.0 | 9.0 | 0.00 | 0.02 | 0.02 | 60 | 1024.0 |
| 20260905122853 | 75 | 305 | 4.0 | 10.0 | 0.00 | 0.02 | 0.02 | 60 | 1024.1 |
| 20260905122631 | 75 | 271 | 3.0 | 10.0 | 0.00 | 0.02 | 0.02 | 61 | 1024.2 |
| 20260905121852 | 74 | 246 | 4.0 | 11.0 | 0.00 | 0.02 | 0.02 | 62 | 1024.3 |
| 20260905121353 | 74 | 270 | 4.0 | 11.0 | 0.00 | 0.02 | 0.02 | 63 | 1024.3 |
| 20260905120850 | 74 | 275 | 3.0 | 9.0 | 0.00 | 0.02 | 0.02 | 63 | 1024.4 |
| 20260905120352 | 73 | 320 | 4.0 | 10.0 | 0.00 | 0.02 | 0.02 | 64 | 1024.4 |
| 20260905120118 | 73 | 303 | 4.0 | 10.0 | 0.00 | 0.02 | 0.02 | 63 | 1024.5 |
| 20260905115349 | 73 | 328 | 4.0 | 10.0 | 0.00 | 0.02 | 0.02 | 64 | 1024.7 |
| 20260905114849 | 73 | 297 | 4.0 | 9.0 | 0.00 | 0.02 | 0.02 | 63 | 1024.6 |
| 20260905114626 | 73 | 278 | 4.0 | 9.0 | 0.00 | 0.02 | 0.02 | 64 | 1024.5 |
| 20260905113839 | 73 | 340 | 3.0 | 8.0 | 0.00 | 0.02 | 0.02 | 63 | 1024.7 |
| 20260905113339 | 74 | 308 | 3.0 | 9.0 | 0.00 | 0.02 | 0.02 | 63 | 1024.7 |
| 20260905112837 | 74 | 282 | 3.0 | 9.0 | 0.00 | 0.02 | 0.02 | 62 | 1024.6 |
| 20260905112338 | 74 | 354 | 2.0 | 6.0 | 0.00 | 0.02 | 0.02 | 63 | 1024.7 |
| 20260905112105 | 73 | 206 | 2.0 | 9.0 | 0.00 | 0.02 | 0.02 | 64 | 1024.6 |
| 20260905111327 | 72 | 343 | 3.0 | 9.0 | 0.00 | 0.02 | 0.02 | 64 | 1024.6 |
| 20260905110826 | 72 | 290 | 3.0 | 8.0 | 0.00 | 0.02 | 0.02 | 65 | 1024.6 |
| 20260905110323 | 73 | 306 | 2.0 | 8.0 | 0.00 | 0.02 | 0.02 | 65 | 1024.5 |
| 20260905105809 | 73 | 277 | 2.0 | 8.0 | 0.00 | 0.02 | 0.02 | 65 | 1024.6 |
| 20260905105306 | 72 | 212 | 3.0 | 8.0 | 0.00 | 0.02 | 0.02 | 65 | 1024.5 |
| 20260905105039 | 72 | 287 | 3.0 | 8.0 | 0.00 | 0.02 | 0.02 | 68 | 1024.6 |
| 20260905104545 | 72 | 204 | 2.0 | 6.0 | 0.00 | 0.02 | 0.02 | 70 | 1024.6 |
| 20260905103808 | 71 | 222 | 2.0 | 4.0 | 0.00 | 0.02 | 0.02 | 69 | 1024.5 |
| 20260905103549 | 70 | 202 | 2.0 | 7.0 | 0.00 | 0.02 | 0.02 | 72 | 1024.5 |
| 20260905102807 | 69 | 156 | 3.0 | 7.0 | 0.00 | 0.02 | 0.02 | 73 | 1024.6 |
| 20260905102306 | 69 | 225 | 2.0 | 5.0 | 0.00 | 0.02 | 0.02 | 72 | 1024.6 |
| 20260905101801 | 69 | 195 | 1.0 | 6.0 | 0.00 | 0.02 | 0.02 | 73 | 1024.6 |
| 20260905101249 | 69 | 326 | 2.0 | 7.0 | 0.00 | 0.02 | 0.02 | 73 | 1024.6 |
| 20260905100748 | 69 | 179 | 3.0 | 7.0 | 0.00 | 0.02 | 0.02 | 73 | 1024.7 |
| 20260905100248 | 69 | 188 | 3.0 | 6.0 | 0.00 | 0.02 | 0.02 | 74 | 1024.6 |
| 20260905095738 | 69 | 199 | 3.0 | 8.0 | 0.00 | 0.02 | 0.02 | 72 | 1024.6 |
| 20260905095235 | 70 | 192 | 1.0 | 8.0 | 0.00 | 0.02 | 0.02 | 72 | 1024.7 |
| 20260905094736 | 70 | 193 | 0.0 | 5.0 | 0.00 | 0.02 | 0.02 | 71 | 1024.8 |
| 20260905094237 | 70 | 180 | 0.0 | 2.0 | 0.00 | 0.02 | 0.02 | 72 | 1024.8 |
| 20260905093736 | 69 | 318 | 1.0 | 2.0 | 0.00 | 0.02 | 0.02 | 73 | 1024.8 |
| 20260905093238 | 69 | 322 | 1.0 | 6.0 | 0.00 | 0.02 | 0.02 | 73 | 1024.7 |
| 20260905092735 | 69 | 319 | 2.0 | 6.0 | 0.00 | 0.02 | 0.02 | 75 | 1024.8 |
| 20260905092220 | 68 | 198 | 2.0 | 4.0 | 0.00 | 0.02 | 0.02 | 77 | 1024.8 |
| 20260905091715 | 67 | 200 | 1.0 | 5.0 | 0.00 | 0.02 | 0.02 | 79 | 1024.8 |
| 20260905091207 | 66 | 206 | 2.0 | 5.0 | 0.00 | 0.02 | 0.02 | 81 | 1024.9 |
| 20260905090656 | 66 | 201 | 2.0 | 5.0 | 0.00 | 0.02 | 0.02 | 80 | 1024.1 |
| 20260905090157 | 65 | 199 | 1.0 | 5.0 | 0.00 | 0.02 | 0.02 | 82 | 1024.0 |
| 20260905085652 | 65 | 237 | 0.0 | 1.0 | 0.00 | 0.02 | 0.02 | 87 | 1024.8 |
| 20260905085148 | 64 | 229 | 1.0 | 4.0 | 0.00 | 0.02 | 0.02 | 89 | 1023.8 |
| 20260905084639 | 63 | 350 | 0.0 | 4.0 | 0.00 | 0.02 | 0.02 | 89 | 1024.8 |
| 20260905084128 | 62 | 206 | 3.0 | 6.0 | 0.00 | 0.02 | 0.02 | 88 | 1023.7 |
| 20260905084114 | 62 | 206 | 2.0 | 5.0 | 0.00 | 0.02 | 0.02 | 89 | 1023.7 |
| 20260905083054 | 62 | 210 | 2.0 | 6.0 | 0.00 | 0.02 | 0.02 | 88 | 1024.7 |
| 20260905082832 | 62 | 206 | 2.0 | 6.0 | 0.00 | 0.02 | 0.02 | 88 | 1024.7 |
| 20260905082318 | 62 | 201 | 2.0 | 6.0 | 0.00 | 0.02 | 0.02 | 89 | 1024.5 |
| 20260905081549 | 62 | 197 | 1.0 | 4.0 | 0.00 | 0.02 | 0.02 | 90 | 1024.4 |
| 20260905081055 | 61 | 196 | 0.0 | 4.0 | 0.00 | 0.02 | 0.02 | 90 | 1023.3 |
| 20260905080550 | 61 | 156 | 0.0 | 3.0 | 0.00 | 0.02 | 0.02 | 90 | 1023.0 |
| 20260905080100 | 61 | 306 | 0.0 | 0.0 | 0.00 | 0.02 | 0.02 | 90 | 1024.6 |
| 20260905075536 | 61 | 306 | 0.0 | 1.0 | 0.00 | 0.02 | 0.02 | 89 | 1024.6 |
| 20260905075036 | 61 | 328 | 1.0 | 4.0 | 0.00 | 0.02 | 0.02 | 90 | 1024.4 |
| 20260905074805 | 61 | 328 | 0.0 | 4.0 | 0.00 | 0.02 | 0.02 | 89 | 1023.5 |
| 20260905074036 | 60 | 204 | 0.0 | 1.0 | 0.00 | 0.02 | 0.02 | 89 | 1024.4 |
| 20260905073529 | 61 | 204 | 1.0 | 4.0 | 0.00 | 0.02 | 0.02 | 89 | 1024.6 |
| 20260905073011 | 61 | 195 | 1.0 | 4.0 | 0.00 | 0.02 | 0.02 | 89 | 1024.3 |
| 20260905072510 | 61 | 197 | 1.0 | 4.0 | 0.00 | 0.02 | 0.02 | 89 | 1024.3 |
| 20260905072235 | 61 | 169 | 1.0 | 4.0 | 0.01 | 0.02 | 0.02 | 89 | 1024.1 |
| 20260905071449 | 61 | 177 | 1.0 | 3.0 | 0.02 | 0.02 | 0.02 | 89 | 1022.7 |
| 20260905071221 | 61 | 187 | 2.0 | 7.0 | 0.02 | 0.02 | 0.02 | 89 | 1023.8 |
| 20260905070437 | 60 | 191 | 2.0 | 7.0 | 0.02 | 0.02 | 0.02 | 89 | 1023.7 |
| 20260905070138 | 60 | 175 | 2.0 | 5.0 | 0.02 | 0.02 | 0.02 | 89 | 1022.5 |
| 20260905065401 | 60 | 177 | 3.0 | 5.0 | 0.02 | 0.02 | 0.02 | 88 | 1023.7 |
| 20260905064855 | 60 | 206 | 3.0 | 5.0 | 0.02 | 0.02 | 0.02 | 87 | 1023.5 |
| 20260905064844 | 60 | 199 | 3.0 | 5.0 | 0.02 | 0.02 | 0.02 | 87 | 1023.5 |
| 20260905063842 | 61 | 197 | 3.0 | 9.0 | 0.02 | 0.02 | 0.02 | 86 | 1023.5 |
| 20260905063342 | 61 | 208 | 2.0 | 9.0 | 0.02 | 0.02 | 0.02 | 85 | 1023.6 |
| 20260905063113 | 62 | 197 | 1.0 | 4.0 | 0.02 | 0.02 | 0.02 | 84 | 1023.5 |
| 20260905062341 | 62 | 297 | 1.0 | 3.0 | 0.02 | 0.02 | 0.02 | 83 | 1023.3 |
| 20260905062109 | 62 | 297 | 1.0 | 3.0 | 0.01 | 0.01 | 0.01 | 81 | 1022.4 |
| 20260905061610 | 63 | 302 | 0.0 | 2.0 | 0.01 | 0.01 | 0.01 | 80 | 1023.6 |
| 20260905061115 | 63 | 301 | 0.0 | 2.0 | 0.01 | 0.01 | 0.01 | 79 | 1023.5 |
| 20260905060339 | 63 | 302 | 0.0 | 2.0 | 0.00 | 0.00 | 0.00 | 76 | 1023.6 |
| 20260905055852 | 63 | 302 | 1.0 | 3.0 | 0.00 | 0.00 | 0.00 | 75 | 1022.4 |
| 20260905055841 | 63 | 302 | 1.0 | 3.0 | 0.00 | 0.00 | 0.00 | 76 | 1022.7 |
| 20260905055313 | 63 | 359 | 0.0 | 2.0 | 0.00 | 0.00 | 0.00 | 74 | 1022.1 |
| 20260905054310 | 63 | 359 | 1.0 | 2.0 | 0.00 | 0.00 | 0.00 | 74 | 1023.0 |
| 20260905053808 | 63 | 359 | 1.0 | 5.0 | 0.00 | 0.00 | 0.00 | 74 | 1022.9 |
| 20260905053256 | 63 | 359 | 1.0 | 5.0 | 0.00 | 0.00 | 0.00 | 74 | 1022.0 |
| 20260905053044 | 64 | 8 | 3.0 | 5.0 | 0.00 | 0.00 | 0.00 | 73 | 1021.3 |
| 20260905053036 | 63 | 18 | 2.0 | 5.0 | 0.00 | 0.00 | 0.00 | 74 | 1021.8 |
| 20260905051752 | 64 | 338 | 3.0 | 12.0 | 0.00 | 0.00 | 0.00 | 73 | 1022.5 |
| 20260905051240 | 64 | 316 | 3.0 | 12.0 | 0.00 | 0.00 | 0.00 | 74 | 1021.9 |
| 20260905050740 | 64 | 346 | 3.0 | 8.0 | 0.00 | 0.00 | 0.00 | 74 | 1021.8 |
| 20260905050238 | 65 | 4 | 3.0 | 9.0 | 0.00 | 0.00 | 0.00 | 75 | 1021.8 |
| 20260905050001 | 65 | 21 | 2.0 | 9.0 | 0.00 | 0.00 | 0.00 | 74 | 1021.9 |
| 20260905045232 | 65 | 19 | 4.0 | 13.0 | 0.00 | 0.00 | 0.00 | 73 | 1022.0 |
| 20260905044717 | 66 | 24 | 4.0 | 13.0 | 0.00 | 0.00 | 0.00 | 72 | 1021.7 |
| 20260905044225 | 67 | 316 | 4.0 | 11.0 | 0.00 | 0.00 | 0.00 | 72 | 1021.7 |
| 20260905043710 | 67 | 302 | 5.0 | 10.0 | 0.00 | 0.00 | 0.00 | 70 | 1020.7 |
| 20260905043441 | 68 | 291 | 7.0 | 17.0 | 0.00 | 0.00 | 0.00 | 69 | 1021.4 |
| 20260905042711 | 69 | 346 | 7.0 | 17.0 | 0.00 | 0.00 | 0.00 | 65 | 1021.6 |
| 20260905042443 | 69 | 320 | 6.0 | 14.0 | 0.00 | 0.00 | 0.00 | 62 | 1020.8 |
| 20260905041710 | 69 | 4 | 6.0 | 14.0 | 0.00 | 0.00 | 0.00 | 61 | 1020.7 |
| 20260905041138 | 70 | 332 | 6.0 | 15.0 | 0.00 | 0.00 | 0.00 | 60 | 1020.5 |
| 20260905040640 | 70 | 31 | 4.0 | 15.0 | 0.00 | 0.00 | 0.00 | 60 | 1020.4 |
| 20260905040135 | 70 | 4 | 5.0 | 11.0 | 0.00 | 0.00 | 0.00 | 60 | 1020.1 |
| 20260905035637 | 70 | 267 | 5.0 | 12.0 | 0.00 | 0.00 | 0.00 | 60 | 1019.9 |
| 20260905035122 | 70 | 283 | 5.0 | 12.0 | 0.00 | 0.00 | 0.00 | 61 | 1019.8 |
| 20260905034849 | 70 | 331 | 5.0 | 11.0 | 0.00 | 0.00 | 0.00 | 62 | 1019.8 |
| 20260905034116 | 70 | 359 | 5.0 | 11.0 | 0.00 | 0.00 | 0.00 | 62 | 1019.3 |
| 20260905033847 | 70 | 276 | 5.0 | 12.0 | 0.00 | 0.00 | 0.00 | 63 | 1019.7 |
| 20260905033114 | 70 | 272 | 5.0 | 12.0 | 0.00 | 0.00 | 0.00 | 64 | 1019.5 |
| 20260905032608 | 71 | 288 | 4.0 | 9.0 | 0.00 | 0.00 | 0.00 | 66 | 1019.0 |
| 20260905032105 | 71 | 325 | 5.0 | 12.0 | 0.00 | 0.00 | 0.00 | 67 | 1019.2 |
| 20260905031545 | 71 | 305 | 5.0 | 12.0 | 0.00 | 0.00 | 0.00 | 67 | 1019.1 |